Wind_Speed
40 40 39 38 38 37 37 39 40 42 43 45 49 51 51 53 55 56 54 53 53 53 53 53 52 54 55 53 51 50 50 50 49 47 45 43 42 40 40 39 38 37 37
37 36 36 35 35 35 35 36 37 38 40 42 46 47 48 50 52 53 53 52 51 52 51 51 52 54 53 51 50 50 50 50 50 48 45 43 42 41 41 40 38 38 38
35 34 34 34 34 34 34 35 35 36 37 39 41 43 45 47 49 49 51 51 50 50 51 51 51 52 51 50 49 49 49 50 50 49 46 43 41 40 40 39 37 38 37
33 32 32 32 32 32 33 32 33 34 36 36 37 40 42 44 46 47 49 49 49 49 50 50 50 50 49 49 49 48 48 49 49 47 45 43 40 39 39 38 37 37 36
31 31 31 30 30 30 30 30 30 31 32 33 34 36 38 40 43 45 47 46 45 46 47 48 49 49 49 49 48 47 47 48 47 45 44 43 40 39 38 37 37 36 36
31 31 30 29 28 28 28 28 30 31 30 31 32 33 36 39 42 43 44 43 42 43 45 47 48 49 50 49 47 46 46 46 44 45 44 41 39 38 37 37 36 36 35
32 30 29 28 27 25 25 26 27 29 29 29 30 33 36 37 39 40 41 41 41 41 42 44 46 46 49 47 45 44 44 43 42 43 41 39 39 38 36 36 36 35 35
31 29 27 26 24 23 24 25 26 26 27 28 29 29 33 35 37 39 40 40 42 40 40 42 44 44 45 44 43 42 41 40 40 40 39 39 38 37 36 34 35 36 35
28 26 25 24 23 22 22 22 23 25 25 27 28 29 31 32 34 35 36 38 40 40 41 41 42 42 42 42 41 40 39 40 39 39 37 37 36 35 35 34 34 35 34
27 25 24 23 22 21 21 21 22 23 25 26 28 29 31 31 31 31 33 35 37 39 40 40 40 39 39 40 40 39 39 38 38 37 37 36 34 34 34 33 33 33 33
26 26 25 24 22 21 21 21 21 22 24 25 26 28 30 30 30 30 30 32 34 36 38 38 37 37 38 39 39 38 37 37 36 35 35 34 33 33 32 32 33 32 32
26 25 24 24 24 23 22 21 21 21 22 24 25 27 29 28 29 29 29 30 32 32 34 35 35 35 37 37 36 37 37 36 35 34 34 33 32 32 32 32 32 32 32
26 25 24 23 24 23 22 22 21 21 23 24 25 26 27 28 29 29 28 29 30 30 32 33 33 34 35 34 34 34 35 35 34 33 32 31 31 31 31 31 31 30 30
25 24 23 22 22 21 21 20 20 20 21 22 24 26 27 28 29 29 28 29 29 29 31 33 33 33 32 32 32 33 34 34 33 32 31 31 30 30 30 30 30 30 30
24 23 22 20 20 20 20 20 19 19 19 21 23 26 27 27 27 28 28 28 28 29 31 32 31 31 30 30 31 32 32 32 31 30 30 30 29 29 29 29 28 28 28
23 22 21 19 19 18 18 19 19 18 18 20 23 25 26 26 26 27 27 28 27 28 30 30 29 29 29 29 30 30 31 30 29 29 28 28 28 28 27 27 27 26 26
21 20 18 17 17 17 17 19 20 20 20 21 22 24 25 26 26 26 27 28 28 28 29 29 29 28 27 28 28 29 29 29 28 27 26 26 26 26 25 25 25 24 24
18 16 15 15 15 16 17 18 19 20 20 21 23 24 25 26 26 26 27 27 27 27 27 28 29 28 27 27 27 28 28 28 27 26 25 25 24 24 24 23 23 23 23
17 15 14 13 14 15 17 18 19 21 21 21 23 23 24 25 25 25 25 25 25 25 26 27 28 27 27 27 27 27 27 26 26 25 23 23 23 22 22 21 21 21 21
15 14 13 13 14 15 17 18 19 20 21 21 22 24 25 25 25 25 25 25 25 24 24 26 26 26 26 26 26 26 25 25 24 23 22 22 21 20 20 20 20 21 21
13 13 13 13 14 15 17 18 20 20 20 21 22 24 26 26 26 25 25 25 25 25 25 24 23 24 24 26 25 24 24 24 22 21 20 20 19 19 19 19 20 20 21
12 12 13 13 14 15 17 18 20 20 20 21 23 24 25 25 25 26 25 26 25 25 25 24 23 23 23 24 24 23 22 22 22 21 20 20 19 18 18 18 19 19 19
12 12 13 14 15 17 18 19 20 20 21 21 23 25 25 24 25 25 25 26 26 25 25 24 23 23 23 23 22 21 21 21 20 20 20 19 18 17 17 17 17 17 18
12 12 14 15 16 17 17 18 19 20 21 21 23 25 26 26 26 25 25 26 26 26 25 24 23 23 22 21 21 21 21 20 20 20 19 18 17 16 16 16 16 16 16
12 13 14 15 16 16 16 17 18 19 20 21 22 24 26 26 26 26 25 25 26 25 24 24 23 22 21 20 20 20 20 20 20 20 19 18 17 16 16 15 15 14 14
13 13 14 15 16 16 16 16 17 19 20 21 23 25 26 26 26 26 26 26 26 25 24 24 24 22 21 20 19 19 19 19 19 19 18 17 16 15 15 15 14 13 13
Wind_Direction
291 285 281 279 275 272 268 262 257 252 250 247 242 240 238 237 235 232 231 231 231 231 231 231 232 232 231 233 234 236 236 236 236 238 241 245 248 253 257 261 264 268 272
294 288 282 280 276 270 267 261 256 253 250 248 243 238 235 235 232 230 230 229 229 229 230 230 230 230 231 231 233 234 235 236 236 237 240 244 247 251 255 259 263 266 271
296 293 286 281 277 271 266 260 254 252 248 247 243 237 234 231 228 228 229 228 229 229 228 228 228 230 229 230 231 233 235 236 237 238 239 244 247 250 254 258 263 267 271
295 292 288 283 277 272 266 260 254 251 246 243 240 235 231 228 226 227 228 227 227 229 228 227 227 228 229 229 231 232 234 236 237 238 240 245 247 250 253 258 263 267 271
294 291 288 284 280 273 264 258 253 249 245 241 236 232 227 226 225 224 226 225 227 228 227 226 227 227 227 229 231 233 234 235 237 239 241 244 247 250 254 260 264 267 272
293 291 288 286 283 274 264 254 249 246 243 239 234 230 227 224 221 222 224 224 226 226 226 226 226 226 226 228 230 233 235 235 237 239 241 245 246 250 254 259 263 268 272
291 289 287 284 279 271 261 254 248 245 243 238 231 227 224 222 222 223 222 223 223 223 224 225 224 225 226 228 230 232 234 235 238 240 241 243 245 249 255 260 264 268 272
293 288 286 283 278 271 264 256 247 243 242 234 229 224 222 222 223 223 222 223 222 222 224 223 223 224 225 228 229 231 233 233 236 238 240 242 245 251 255 258 264 268 272
293 289 285 281 276 271 264 256 248 244 238 233 228 224 221 222 223 222 219 219 221 223 223 223 222 222 224 226 228 230 230 230 235 238 240 242 245 250 253 258 263 268 273
291 288 284 281 277 270 265 256 248 242 235 231 226 224 223 220 221 222 219 218 220 221 221 221 221 223 224 225 228 228 228 229 232 236 238 240 244 249 253 258 263 268 273
289 285 283 281 277 269 263 254 245 237 233 229 227 224 220 218 220 219 218 218 218 220 221 221 222 223 224 225 227 227 227 228 231 233 236 240 243 248 254 257 262 268 274
288 283 282 278 273 268 259 252 243 235 232 228 226 221 219 220 220 218 216 218 220 220 220 220 220 220 219 222 226 227 228 229 230 231 235 239 244 249 254 258 263 269 274
287 283 280 276 268 262 254 250 244 237 231 226 221 216 216 217 218 217 216 215 216 219 219 218 218 219 218 220 223 226 229 230 230 232 236 240 245 249 254 259 263 267 274
285 281 277 272 265 258 252 247 239 232 226 221 218 215 213 214 215 215 216 216 217 218 218 215 216 216 217 219 222 226 228 228 228 231 236 241 246 250 254 258 263 269 276
281 278 274 268 262 254 246 239 235 228 224 219 215 212 210 210 211 211 212 214 215 213 213 213 212 213 216 219 223 225 227 226 227 231 236 240 245 250 254 259 265 273 279
278 273 268 263 258 249 238 230 227 224 218 213 210 208 206 207 207 207 207 207 206 207 210 211 211 212 217 220 223 225 226 226 228 232 236 240 244 249 254 260 266 273 277
278 271 262 255 247 239 230 224 221 220 215 210 208 206 205 205 204 203 203 204 206 208 210 211 212 214 217 220 222 223 225 226 228 231 236 240 244 249 255 261 267 273 279
272 263 256 245 238 232 223 219 219 218 213 209 206 206 205 205 205 203 202 204 205 206 208 211 213 216 219 219 219 219 221 224 226 230 236 241 245 250 256 261 268 274 280
264 256 246 238 232 225 220 217 216 215 213 210 207 205 203 203 206 205 203 203 202 202 206 211 213 215 218 218 217 216 218 223 227 232 238 242 246 249 254 260 267 274 280
260 248 237 232 228 223 219 217 215 214 214 211 207 204 202 201 203 203 202 200 200 200 203 207 211 214 216 218 218 218 220 224 228 234 238 242 244 247 252 259 267 274 280
251 241 234 227 219 216 215 216 216 214 215 212 206 203 201 200 201 200 198 197 199 200 202 205 208 212 215 217 218 221 224 226 230 234 236 238 241 244 250 259 266 272 280
246 237 231 225 219 216 217 218 217 215 214 211 207 204 201 199 199 197 196 197 200 202 203 207 209 213 215 217 219 221 225 228 230 232 231 233 237 244 251 260 267 272 279
241 234 226 222 221 221 221 220 217 213 210 208 206 203 201 198 197 197 198 199 201 201 202 204 207 211 215 218 219 221 222 223 223 223 226 229 234 242 251 260 268 273 281
236 230 226 224 223 223 221 218 215 211 209 208 207 204 201 198 197 197 199 200 200 200 201 202 204 207 209 211 213 215 215 215 215 217 222 228 234 242 251 260 268 276 283
233 226 223 222 221 218 215 212 210 207 206 205 203 201 198 197 198 198 198 200 200 200 201 202 203 204 206 208 211 213 212 210 212 217 222 226 234 243 251 259 268 277 284
230 223 218 217 217 213 209 208 207 205 203 202 200 199 198 198 198 198 198 199 201 201 201 201 202 204 206 209 211 209 208 209 212 216 221 227 237 243 247 255 266 275 285
Height
5520 5515 5511 5508 5505 5504 5503 5503 5503 5505 5508 5511 5516 5521 5528 5535 5541 5549 5557 5564 5572 5580 5588 5595 5603 5611 5619 5627 5635 5642 5648 5655 5662 5668 5671 5675 5678 5680 5682 5683 5684 5684 5683
5509 5504 5500 5497 5495 5493 5492 5492 5493 5494 5496 5499 5503 5508 5515 5522 5529 5537 5545 5553 5561 5569 5576 5584 5591 5599 5608 5616 5624 5631 5638 5644 5651 5656 5661 5665 5668 5671 5673 5674 5675 5675 5674
5500 5495 5491 5488 5486 5484 5483 5482 5483 5484 5486 5489 5492 5497 5504 5510 5519 5527 5534 5542 5550 5558 5566 5573 5581 5589 5597 5606 5613 5621 5628 5634 5640 5646 5651 5655 5659 5661 5663 5665 5666 5666 5665
5491 5487 5483 5480 5477 5475 5475 5474 5474 5475 5477 5479 5483 5487 5494 5501 5509 5517 5525 5533 5541 5548 5556 5563 5571 5579 5588 5596 5603 5610 5617 5624 5630 5635 5641 5645 5649 5652 5655 5656 5657 5657 5656
5483 5479 5475 5472 5469 5467 5467 5466 5466 5467 5469 5471 5475 5480 5486 5493 5501 5508 5516 5524 5531 5539 5547 5554 5562 5571 5579 5586 5594 5601 5608 5614 5620 5625 5631 5636 5640 5643 5646 5648 5648 5648 5647
5476 5472 5468 5464 5462 5461 5460 5460 5460 5461 5462 5465 5469 5474 5479 5486 5494 5501 5508 5516 5523 5530 5538 5546 5554 5562 5570 5577 5584 5592 5599 5605 5611 5617 5622 5627 5631 5635 5637 5639 5639 5640 5640
5468 5464 5460 5457 5455 5454 5454 5454 5455 5455 5457 5459 5463 5467 5474 5480 5487 5494 5501 5508 5516 5523 5530 5538 5546 5553 5561 5568 5575 5582 5589 5596 5602 5608 5614 5619 5623 5626 5629 5630 5631 5631 5632
5460 5456 5453 5450 5449 5449 5449 5449 5449 5450 5452 5454 5458 5463 5468 5475 5481 5488 5495 5501 5508 5516 5523 5531 5538 5546 5553 5560 5568 5574 5581 5588 5594 5599 5606 5611 5614 5617 5620 5622 5623 5623 5623
5453 5450 5447 5445 5443 5443 5443 5444 5444 5445 5447 5450 5454 5458 5464 5470 5476 5482 5488 5494 5501 5509 5516 5523 5530 5538 5546 5553 5559 5566 5573 5579 5585 5592 5597 5601 5605 5608 5611 5613 5615 5615 5615
5447 5445 5443 5441 5439 5438 5438 5438 5439 5441 5443 5446 5450 5454 5460 5465 5471 5476 5482 5488 5495 5502 5510 5517 5524 5532 5538 5545 5552 5558 5565 5572 5578 5583 5588 5593 5597 5600 5603 5606 5607 5608 5607
5441 5439 5437 5435 5434 5434 5433 5434 5435 5437 5439 5442 5445 5450 5455 5460 5466 5472 5478 5484 5491 5497 5504 5511 5518 5524 5531 5538 5544 5551 5558 5564 5570 5575 5581 5585 5589 5593 5596 5598 5599 5600 5599
5435 5433 5431 5430 5429 5428 5428 5429 5430 5432 5435 5438 5441 5445 5450 5455 5461 5467 5473 5479 5485 5492 5498 5505 5512 5518 5525 5531 5537 5544 5550 5556 5561 5567 5572 5577 5581 5585 5588 5590 5591 5591 5591
5428 5426 5425 5423 5423 5422 5423 5424 5425 5427 5430 5433 5437 5441 5446 5451 5457 5463 5468 5474 5480 5485 5492 5499 5506 5512 5518 5524 5530 5536 5542 5548 5554 5560 5565 5570 5574 5577 5580 5582 5583 5583 5583
5421 5419 5418 5416 5416 5416 5417 5419 5421 5423 5425 5429 5432 5437 5442 5447 5452 5458 5463 5469 5474 5480 5486 5493 5500 5506 5512 5518 5524 5530 5535 5541 5547 5553 5558 5562 5566 5569 5572 5574 5575 5575 5575
5413 5412 5411 5410 5409 5410 5412 5413 5416 5418 5421 5424 5429 5433 5438 5443 5448 5453 5459 5465 5470 5476 5482 5488 5495 5501 5507 5512 5518 5524 5529 5534 5540 5545 5550 5555 5558 5562 5565 5566 5567 5567 5567
5406 5404 5404 5403 5403 5404 5406 5409 5411 5414 5417 5420 5424 5429 5435 5439 5444 5449 5454 5460 5466 5471 5478 5484 5490 5496 5502 5508 5513 5518 5523 5529 5534 5539 5544 5548 5551 5554 5557 5559 5560 5560 5560
5398 5398 5397 5398 5399 5400 5402 5405 5408 5411 5413 5417 5421 5426 5431 5436 5440 5445 5450 5456 5461 5467 5473 5479 5486 5492 5498 5503 5508 5513 5518 5523 5528 5533 5537 5541 5544 5547 5550 5551 5552 5553 5552
5393 5392 5392 5393 5394 5396 5399 5401 5404 5407 5411 5414 5418 5422 5427 5431 5436 5441 5446 5452 5458 5463 5469 5475 5482 5488 5493 5499 5503 5508 5513 5518 5522 5527 5531 5535 5538 5541 5543 5544 5545 5546 5545
5387 5387 5388 5389 5391 5393 5395 5398 5401 5405 5408 5411 5415 5419 5423 5428 5433 5438 5443 5449 5455 5460 5465 5471 5477 5483 5489 5494 5499 5503 5508 5513 5517 5521 5525 5528 5532 5534 5536 5537 5539 5539 5539
5383 5383 5384 5385 5387 5390 5392 5395 5398 5402 5405 5408 5412 5416 5420 5425 5430 5435 5440 5445 5451 5456 5462 5467 5473 5478 5484 5489 5494 5498 5503 5507 5511 5515 5519 5522 5525 5528 5530 5531 5532 5533 5532
5378 5379 5380 5382 5384 5386 5389 5392 5395 5398 5402 5405 5408 5412 5417 5422 5427 5432 5437 5442 5447 5453 5458 5464 5469 5474 5479 5484 5489 5493 5498 5502 5506 5510 5513 5517 5519 5522 5524 5525 5526 5526 5526
5374 5375 5377 5379 5381 5383 5386 5389 5392 5395 5398 5402 5405 5409 5414 5419 5423 5429 5434 5439 5444 5449 5455 5460 5465 5471 5475 5480 5484 5488 5493 5497 5501 5504 5508 5511 5514 5516 5518 5520 5521 5521 5521
5370 5372 5373 5375 5377 5380 5382 5385 5388 5391 5395 5398 5402 5406 5411 5415 5420 5425 5430 5436 5441 5446 5452 5457 5462 5467 5471 5475 5479 5484 5488 5492 5496 5500 5503 5506 5509 5511 5513 5515 5516 5516 5515
5366 5367 5369 5371 5373 5375 5378 5381 5384 5387 5391 5394 5398 5403 5407 5412 5417 5423 5428 5433 5438 5443 5448 5453 5458 5463 5467 5471 5475 5479 5483 5487 5491 5495 5498 5502 5504 5507 5509 5510 5511 5511 5510
5362 5363 5365 5367 5369 5371 5374 5376 5380 5383 5387 5391 5395 5399 5404 5410 5415 5420 5425 5430 5435 5440 5445 5450 5454 5459 5464 5468 5472 5476 5480 5483 5487 5491 5494 5497 5500 5502 5504 5505 5506 5505 5505
5358 5359 5361 5363 5366 5368 5370 5373 5376 5380 5383 5388 5392 5397 5402 5407 5412 5417 5422 5428 5433 5438 5442 5447 5452 5456 5461 5465 5469 5472 5476 5480 5484 5487 5491 5494 5496 5498 5500 5501 5501 5501 5500